,,,PA_Meas_PMT16A,,PR_Meas_QMR101_102,,RH_Meas_QMH101,,SR_Meas_QMS101,,TA_Meas_QMH101,,GenWind,,GenWind,
date,time,status,PA,status,PR,status,RH,status,SR,status,TA,status,DirAvg,status,SpdAvg,
2010-09-27, 00:00:04,VALID,1001.47,VALID,0,VALID,89.5794,VALID,0,VALID,24.4233,VALID,82,VALID,1.57266,
2010-09-27, 00:01:04,VALID,1001.44,VALID,0,VALID,89.5107,VALID,0,VALID,24.3433,VALID,91,VALID,1.51055,
2010-09-27, 00:02:04,VALID,1001.41,VALID,0,VALID,89.1063,VALID,0,VALID,24.3238,VALID,68,VALID,1.33984,
2010-09-27, 00:03:04,VALID,1001.39,VALID,0,VALID,88.908,VALID,0,VALID,24.2848,VALID,66,VALID,1.56055,
2010-09-27, 00:04:04,VALID,1001.39,VALID,0,VALID,89.1903,VALID,0,VALID,24.2653,VALID,97,VALID,1.54883,
2010-09-27, 00:05:04,VALID,1001.36,VALID,0,VALID,88.4197,VALID,0,VALID,24.2263,VALID,103,VALID,1.11563,
2010-09-27, 00:06:04,VALID,1001.38,VALID,0.5,VALID,88.3052,VALID,0,VALID,24.2067,VALID,79,VALID,0.86875,
2010-09-27, 00:07:04,VALID,1001.4,VALID,0,VALID,88.8622,VALID,0,VALID,24.1909,VALID,72,VALID,0.685547,
2010-09-27, 00:08:04,VALID,1001.37,VALID,0,VALID,89.175,VALID,0,VALID,24.15,VALID,76,VALID,0.850781,
2010-09-27, 00:09:04,VALID,1001.39,VALID,0,VALID,88.5112,VALID,0,VALID,24.111,VALID,58,VALID,1.35977,
2010-09-27, 00:10:04,VALID,1001.4,VALID,0,VALID,88.7249,VALID,0,VALID,24.111,VALID,70,VALID,0.780859,
2010-09-27, 00:11:04,VALID,1001.4,VALID,0,VALID,88.9766,VALID,0,VALID,24.0915,VALID,70,VALID,0.632031,
2010-09-27, 00:12:04,VALID,1001.39,VALID,0,VALID,88.8774,VALID,0,VALID,24.0525,VALID,41,VALID,0.823438,
2010-09-27, 00:13:04,VALID,1001.42,VALID,0,VALID,88.9766,VALID,0,VALID,24.0134,VALID,64,VALID,0.735547,
2010-09-27, 00:14:04,VALID,1001.43,VALID,0.5,VALID,89.1445,VALID,0,VALID,23.9939,VALID,78,VALID,0.85625,
2010-09-27, 00:15:04,VALID,1001.41,VALID,0,VALID,89.0911,VALID,0,VALID,23.9744,VALID,61,VALID,0.798437,
2010-09-27, 00:16:04,VALID,1001.42,VALID,0,VALID,89.175,VALID,0,VALID,23.9744,VALID,52,VALID,0.682422,
2010-09-27, 00:17:04,VALID,1001.37,VALID,0,VALID,89.5412,VALID,0,VALID,23.9744,VALID,71,VALID,0.721484,
2010-09-27, 00:18:04,VALID,1001.37,VALID,0,VALID,89.5641,VALID,0,VALID,23.9549,VALID,97,VALID,0.607813,
2010-09-27, 00:19:04,VALID,1001.32,VALID,0,VALID,89.8769,VALID,0,VALID,23.9354,VALID,111,VALID,0.428125,
2010-09-27, 00:20:04,VALID,1001.28,VALID,0.5,VALID,89.7243,VALID,0,VALID,23.9159,VALID,92,VALID,0.716797,
2010-09-27, 00:21:04,VALID,1001.27,VALID,0,VALID,89.6404,VALID,0,VALID,23.8963,VALID,119,VALID,1.1168,
2010-09-27, 00:22:04,VALID,1001.27,VALID,0,VALID,89.7549,VALID,0,VALID,23.8963,VALID,113,VALID,0.930469,
2010-09-27, 00:23:04,VALID,1001.24,VALID,0,VALID,89.8083,VALID,0,VALID,23.8963,VALID,106,VALID,1.71992,
2010-09-27, 00:24:04,VALID,1001.25,VALID,0,VALID,90.0906,VALID,0,VALID,23.875,VALID,123,VALID,1.34336,
2010-09-27, 00:25:04,VALID,1001.29,VALID,0,VALID,90.3271,VALID,0,VALID,23.8555,VALID,116,VALID,1.34297,
2010-09-27, 00:26:04,VALID,1001.27,VALID,0.5,VALID,90.411,VALID,0,VALID,23.8573,VALID,121,VALID,1.06797,
2010-09-27, 00:27:04,VALID,1001.23,VALID,0,VALID,90.5712,VALID,0,VALID,23.836,VALID,126,VALID,1.27305,
2010-09-27, 00:28:04,VALID,1001.16,VALID,0,VALID,90.7009,VALID,0,VALID,23.8378,VALID,133,VALID,0.858594,
2010-09-27, 00:29:04,VALID,1001.09,VALID,0,VALID,90.823,VALID,0,VALID,23.7988,VALID,150,VALID,1.30234,
2010-09-27, 00:30:04,VALID,1001.04,VALID,0,VALID,90.8154,VALID,0,VALID,23.8183,VALID,147,VALID,1.79336,
2010-09-27, 00:31:04,VALID,1001.02,VALID,0,VALID,90.5483,VALID,0,VALID,23.7988,VALID,160,VALID,2.00312,
2010-09-27, 00:32:04,VALID,1000.98,VALID,0.5,VALID,90.3347,VALID,0,VALID,23.7988,VALID,139,VALID,2.16211,
2010-09-27, 00:33:04,VALID,1000.95,VALID,0,VALID,90.2355,VALID,0,VALID,23.8183,VALID,135,VALID,1.90781,
2010-09-27, 00:34:04,VALID,1000.94,VALID,0,VALID,90.3728,VALID,0,VALID,23.8183,VALID,142,VALID,2.71602,
2010-09-27, 00:35:04,VALID,1000.94,VALID,0,VALID,90.2813,VALID,0,VALID,23.797,VALID,134,VALID,2.51992,
2010-09-27, 00:36:04,VALID,1000.87,VALID,0,VALID,90.5941,VALID,0,VALID,23.8183,VALID,144,VALID,1.93672,
2010-09-27, 00:37:04,VALID,1000.84,VALID,0,VALID,90.0829,VALID,0,VALID,23.8006,VALID,140,VALID,2.24453,
2010-09-27, 00:38:04,VALID,1000.83,VALID,0.5,VALID,89.8998,VALID,0,VALID,23.7988,VALID,159,VALID,2.24141,
2010-09-27, 00:39:04,VALID,1000.79,VALID,0,VALID,89.3963,VALID,0,VALID,23.7793,VALID,131,VALID,2.57422,
2010-09-27, 00:40:04,VALID,1000.74,VALID,0,VALID,89.2894,VALID,0,VALID,23.7402,VALID,149,VALID,2.15664,
2010-09-27, 00:41:04,VALID,1000.74,VALID,0,VALID,89.1216,VALID,0,VALID,23.7207,VALID,153,VALID,2.8125,
2010-09-27, 00:42:04,VALID,1000.7,VALID,0,VALID,89.1903,VALID,0,VALID,23.7597,VALID,139,VALID,1.69766,
2010-09-27, 00:43:04,VALID,1000.71,VALID,0,VALID,89.2513,VALID,0,VALID,23.7207,VALID,152,VALID,2.23125,
2010-09-27, 00:44:04,VALID,1000.75,VALID,0,VALID,89.4954,VALID,0,VALID,23.7402,VALID,148,VALID,1.98945,
2010-09-27, 00:45:04,VALID,1000.7,VALID,0,VALID,89.2284,VALID,0,VALID,23.7207,VALID,145,VALID,2.59922,
2010-09-27, 00:46:04,VALID,1000.72,VALID,0,VALID,89.5412,VALID,0,VALID,23.7207,VALID,144,VALID,1.65195,
2010-09-27, 00:47:04,VALID,1000.7,VALID,0,VALID,89.9685,VALID,0,VALID,23.7012,VALID,140,VALID,1.06641,
2010-09-27, 00:48:04,VALID,1000.7,VALID,0,VALID,90.0143,VALID,0,VALID,23.6427,VALID,148,VALID,1.87734,
2010-09-27, 00:49:04,VALID,1000.7,VALID,0,VALID,89.8922,VALID,0,VALID,23.6427,VALID,172,VALID,1.8168,
2010-09-27, 00:50:04,VALID,1000.68,VALID,0,VALID,89.7701,VALID,0,VALID,23.6427,VALID,161,VALID,1.89141,
2010-09-27, 00:51:04,VALID,1000.7,VALID,0,VALID,90.06,VALID,0,VALID,23.6427,VALID,161,VALID,1.83008,
2010-09-27, 00:52:04,VALID,1000.68,VALID,0,VALID,90.0982,VALID,0,VALID,23.6622,VALID,155,VALID,1.61406,
2010-09-27, 00:53:04,VALID,1000.66,VALID,0,VALID,90.0219,VALID,0,VALID,23.6214,VALID,148,VALID,1.61523,
2010-09-27, 00:54:04,VALID,1000.64,VALID,0,VALID,90.2889,VALID,0,VALID,23.6019,VALID,143,VALID,1.34922,
2010-09-27, 00:55:04,VALID,1000.63,VALID,0.5,VALID,90.3805,VALID,0,VALID,23.5628,VALID,147,VALID,0.967969,
2010-09-27, 00:56:04,VALID,1000.64,VALID,0,VALID,90.4339,VALID,0,VALID,23.5433,VALID,148,VALID,1.04609,
2010-09-27, 00:57:04,VALID,1000.68,VALID,0,VALID,90.5712,VALID,0,VALID,23.5238,VALID,138,VALID,1.05938,
2010-09-27, 00:58:04,VALID,1000.71,VALID,0,VALID,90.7009,VALID,0,VALID,23.5043,VALID,137,VALID,1.30977,
2010-09-27, 00:59:04,VALID,1000.71,VALID,0,VALID,90.9146,VALID,0,VALID,23.5025,VALID,134,VALID,1.16523,
2010-09-27, 01:00:04,VALID,1000.74,VALID,0,VALID,91.09,VALID,0,VALID,23.483,VALID,147,VALID,1.25703,
2010-09-27, 01:01:04,VALID,1000.7,VALID,0,VALID,91.2197,VALID,0,VALID,23.5043,VALID,147,VALID,1.23164,
2010-09-27, 01:02:04,VALID,1000.68,VALID,0,VALID,91.2655,VALID,0.112286,VALID,23.5025,VALID,143,VALID,1.03711,
2010-09-27, 01:03:04,VALID,1000.66,VALID,0,VALID,91.2579,VALID,0,VALID,23.4848,VALID,148,VALID,1.04258,
2010-09-27, 01:04:04,VALID,1000.62,VALID,0,VALID,91.2274,VALID,0,VALID,23.4653,VALID,166,VALID,0.999219,
2010-09-27, 01:05:04,VALID,1000.61,VALID,0,VALID,91.2579,VALID,0,VALID,23.4653,VALID,169,VALID,0.842578,
2010-09-27, 01:06:04,VALID,1000.61,VALID,0,VALID,91.3189,VALID,0,VALID,23.4848,VALID,189,VALID,1.02461,
2010-09-27, 01:07:04,VALID,1000.63,VALID,0,VALID,91.441,VALID,0.112286,VALID,23.5274,VALID,191,VALID,0.779688,
2010-09-27, 01:08:04,VALID,1000.62,VALID,0,VALID,91.5554,VALID,0,VALID,23.5256,VALID,195,VALID,0.617969,
2010-09-27, 01:09:04,VALID,1000.61,VALID,0,VALID,91.5402,VALID,0,VALID,23.5061,VALID,193,VALID,0.791406,
2010-09-27, 01:10:04,VALID,1000.64,VALID,0,VALID,91.441,VALID,0,VALID,23.5256,VALID,193,VALID,0.602344,
2010-09-27, 01:11:04,VALID,1000.63,VALID,0,VALID,91.4639,VALID,0,VALID,23.5256,VALID,190,VALID,0.55,
2010-09-27, 01:12:04,VALID,1000.66,VALID,0,VALID,91.4715,VALID,0,VALID,23.5061,VALID,173,VALID,1.05391,
2010-09-27, 01:13:04,VALID,1000.64,VALID,0,VALID,91.4563,VALID,0,VALID,23.5256,VALID,174,VALID,0.992969,
2010-09-27, 01:14:04,VALID,1000.6,VALID,0,VALID,91.4181,VALID,0,VALID,23.5256,VALID,181,VALID,1.43516,
2010-09-27, 01:15:04,VALID,1000.57,VALID,0,VALID,91.3571,VALID,0,VALID,23.5646,VALID,173,VALID,2.24492,
2010-09-27, 01:16:04,VALID,1000.56,VALID,0,VALID,91.38,VALID,0,VALID,23.6036,VALID,175,VALID,1.29883,
2010-09-27, 01:17:04,VALID,1000.56,VALID,0,VALID,91.3876,VALID,0,VALID,23.5628,VALID,175,VALID,1.75937,
2010-09-27, 01:18:04,VALID,1000.52,VALID,0,VALID,91.3342,VALID,0,VALID,23.5841,VALID,156,VALID,1.96602,
2010-09-27, 01:19:04,VALID,1000.51,VALID,0,VALID,91.3952,VALID,0,VALID,23.6036,VALID,177,VALID,1.56836,
2010-09-27, 01:20:04,VALID,1000.48,VALID,0,VALID,91.4639,VALID,0,VALID,23.6036,VALID,177,VALID,1.69141,
2010-09-27, 01:21:04,VALID,1000.47,VALID,0,VALID,91.502,VALID,0,VALID,23.6232,VALID,149,VALID,1.24805,
2010-09-27, 01:22:04,VALID,1000.44,VALID,0,VALID,91.5478,VALID,0,VALID,23.6232,VALID,176,VALID,1.75273,
2010-09-27, 01:23:04,VALID,1000.44,VALID,0,VALID,91.6394,VALID,0,VALID,23.6427,VALID,167,VALID,1.1875,
2010-09-27, 01:24:04,VALID,1000.39,VALID,0,VALID,91.7385,VALID,0,VALID,23.6817,VALID,177,VALID,1.42695,
2010-09-27, 01:25:04,VALID,1000.37,VALID,0,VALID,91.8225,VALID,0,VALID,23.6622,VALID,180,VALID,1.09883,
2010-09-27, 01:26:04,VALID,1000.35,VALID,0,VALID,91.8072,VALID,0,VALID,23.6622,VALID,203,VALID,1.85586,
2010-09-27, 01:27:04,VALID,1000.33,VALID,0,VALID,91.8072,VALID,0,VALID,23.6817,VALID,198,VALID,1.12227,
2010-09-27, 01:28:04,VALID,1000.29,VALID,0,VALID,91.8377,VALID,0,VALID,23.6817,VALID,223,VALID,0.853516,
2010-09-27, 01:29:04,VALID,1000.28,VALID,0,VALID,91.8377,VALID,0,VALID,23.7012,VALID,222,VALID,0.461328,
2010-09-27, 01:30:04,VALID,1000.27,VALID,0,VALID,91.7691,VALID,0,VALID,23.6817,VALID,196,VALID,1.00586,
2010-09-27, 01:31:04,VALID,1000.28,VALID,0,VALID,91.7462,VALID,0,VALID,23.6604,VALID,206,VALID,1.0582,
2010-09-27, 01:32:04,VALID,1000.28,VALID,0,VALID,91.6928,VALID,0,VALID,23.7012,VALID,216,VALID,0.741797,
2010-09-27, 01:33:04,VALID,1000.27,VALID,0,VALID,91.708,VALID,0,VALID,23.6817,VALID,247,VALID,0.783203,
2010-09-27, 01:34:04,VALID,1000.3,VALID,0,VALID,91.6165,VALID,0,VALID,23.6817,VALID,209,VALID,0.460156,
2010-09-27, 01:35:04,VALID,1000.33,VALID,0,VALID,91.5707,VALID,0,VALID,23.6817,VALID,209,VALID,0.210547,
2010-09-27, 01:36:04,VALID,1000.31,VALID,0,VALID,91.647,VALID,0,VALID,23.6622,VALID,207,VALID,0.325,
2010-09-27, 01:37:04,VALID,1000.3,VALID,0,VALID,91.7233,VALID,0,VALID,23.6214,VALID,187,VALID,0.316016,
2010-09-27, 01:38:04,VALID,1000.28,VALID,0,VALID,91.7385,VALID,0,VALID,23.6036,VALID,151,VALID,0.728516,
2010-09-27, 01:39:04,VALID,1000.28,VALID,0,VALID,91.7233,VALID,0,VALID,23.5841,VALID,151,VALID,0.23125,
2010-09-27, 01:40:04,VALID,1000.29,VALID,0,VALID,91.7538,VALID,0,VALID,23.5238,VALID,151,VALID,0.3375,
2010-09-27, 01:41:04,VALID,1000.27,VALID,0,VALID,91.792,VALID,0,VALID,23.5646,VALID,151,VALID,0.294922,
2010-09-27, 01:42:04,VALID,1000.26,VALID,0,VALID,91.8454,VALID,0,VALID,23.5451,VALID,151,VALID,0.224609,
2010-09-27, 01:43:04,VALID,1000.24,VALID,0,VALID,91.8911,VALID,0,VALID,23.5061,VALID,151,VALID,0.2125,
2010-09-27, 01:44:04,VALID,1000.22,VALID,0,VALID,91.914,VALID,0,VALID,23.5061,VALID,151,VALID,0.173828,
2010-09-27, 01:45:04,VALID,1000.22,VALID,0,VALID,91.9674,VALID,0,VALID,23.4866,VALID,100,VALID,0.660937,
2010-09-27, 01:46:04,VALID,1000.18,VALID,0,VALID,92.0361,VALID,0,VALID,23.4866,VALID,100,VALID,0.598828,
2010-09-27, 01:47:04,VALID,1000.18,VALID,0,VALID,92.0819,VALID,0,VALID,23.5061,VALID,100,VALID,0.588672,
2010-09-27, 01:48:04,VALID,1000.18,VALID,0,VALID,92.1506,VALID,0,VALID,23.5061,VALID,100,VALID,0.335938,
2010-09-27, 01:49:04,VALID,1000.16,VALID,0,VALID,92.1887,VALID,0,VALID,23.4848,VALID,100,VALID,0.248828,
2010-09-27, 01:50:04,VALID,1000.15,VALID,0,VALID,92.2497,VALID,0,VALID,23.4866,VALID,100,VALID,0.557813,
2010-09-27, 01:51:04,VALID,1000.13,VALID,0,VALID,92.3108,VALID,0,VALID,23.4866,VALID,82,VALID,0.775,
2010-09-27, 01:52:04,VALID,1000.13,VALID,0,VALID,92.3031,VALID,0,VALID,23.4884,VALID,70,VALID,0.974609,
2010-09-27, 01:53:04,VALID,1000.08,VALID,0,VALID,92.3031,VALID,0,VALID,23.4653,VALID,70,VALID,0.994531,
2010-09-27, 01:54:04,VALID,1000.07,VALID,0,VALID,92.3413,VALID,0,VALID,23.4866,VALID,70,VALID,0.857031,
2010-09-27, 01:55:04,VALID,1000.05,VALID,0,VALID,92.4023,VALID,0,VALID,23.5061,VALID,65,VALID,1.07539,
2010-09-27, 01:56:04,VALID,1000.05,VALID,0,VALID,92.4328,VALID,0,VALID,23.4866,VALID,56,VALID,1.00469,
2010-09-27, 01:57:04,VALID,1000.03,VALID,0,VALID,92.4328,VALID,0,VALID,23.4653,VALID,56,VALID,0.902734,
2010-09-27, 01:58:04,VALID,1000.02,VALID,0,VALID,92.4328,VALID,0,VALID,23.4671,VALID,52,VALID,1.10234,
2010-09-27, 01:59:04,VALID,999.976,VALID,0,VALID,92.4176,VALID,0,VALID,23.4458,VALID,43,VALID,1.02266,
2010-09-27, 02:00:04,VALID,999.996,VALID,0,VALID,92.471,VALID,0,VALID,23.4671,VALID,35,VALID,1.05547,
2010-09-27, 02:01:04,VALID,999.971,VALID,0,VALID,92.4634,VALID,0,VALID,23.4263,VALID,34,VALID,1.18711,
2010-09-27, 02:02:04,VALID,999.926,VALID,0,VALID,92.471,VALID,0,VALID,23.4263,VALID,34,VALID,1.01797,
2010-09-27, 02:03:04,VALID,999.924,VALID,0,VALID,92.4481,VALID,0,VALID,23.428,VALID,33,VALID,1.06289,
2010-09-27, 02:04:04,VALID,999.916,VALID,0,VALID,92.4405,VALID,0,VALID,23.4067,VALID,32,VALID,0.958984,
2010-09-27, 02:05:04,VALID,999.884,VALID,0,VALID,92.41,VALID,0,VALID,23.3872,VALID,34,VALID,0.969141,
2010-09-27, 02:06:04,VALID,999.861,VALID,0,VALID,92.4252,VALID,0,VALID,23.3872,VALID,34,VALID,0.766406,
2010-09-27, 02:07:04,VALID,999.875,VALID,0,VALID,92.4023,VALID,0,VALID,23.4085,VALID,53,VALID,1.00937,
2010-09-27, 02:08:04,VALID,999.841,VALID,0,VALID,92.4328,VALID,0,VALID,23.428,VALID,68,VALID,1.23906,
2010-09-27, 02:09:04,VALID,999.789,VALID,0,VALID,92.4481,VALID,0,VALID,23.428,VALID,69,VALID,1.11328,
2010-09-27, 02:10:04,VALID,999.773,VALID,0,VALID,92.4939,VALID,0,VALID,23.4475,VALID,65,VALID,0.830078,
2010-09-27, 02:11:04,VALID,999.741,VALID,0,VALID,92.532,VALID,0,VALID,23.4475,VALID,65,VALID,1.01484,
2010-09-27, 02:12:04,VALID,999.7,VALID,0,VALID,92.5626,VALID,0,VALID,23.4263,VALID,65,VALID,0.609375,
2010-09-27, 02:13:04,VALID,999.691,VALID,0,VALID,92.5931,VALID,0,VALID,23.428,VALID,65,VALID,0.748828,
2010-09-27, 02:14:04,VALID,999.697,VALID,0,VALID,92.6312,VALID,0,VALID,23.428,VALID,65,VALID,0.608984,
2010-09-27, 02:15:04,VALID,999.681,VALID,0,VALID,92.6312,VALID,0,VALID,23.4085,VALID,65,VALID,0.301172,
2010-09-27, 02:16:04,VALID,999.652,VALID,0,VALID,92.6541,VALID,0,VALID,23.4085,VALID,65,VALID,0.150391,
2010-09-27, 02:17:04,VALID,999.662,VALID,0,VALID,92.6999,VALID,0,VALID,23.4085,VALID,65,VALID,0.0117188,
2010-09-27, 02:18:04,VALID,999.681,VALID,0,VALID,92.7151,VALID,0,VALID,23.389,VALID,65,VALID,0.414063,
2010-09-27, 02:19:04,VALID,999.715,VALID,0,VALID,92.7457,VALID,0,VALID,23.3695,VALID,65,VALID,0.523438,
2010-09-27, 02:20:04,VALID,999.728,VALID,0,VALID,92.7914,VALID,0,VALID,23.389,VALID,65,VALID,0.548047,
2010-09-27, 02:21:04,VALID,999.715,VALID,0,VALID,92.7533,VALID,0,VALID,23.3677,VALID,40,VALID,1.00703,
2010-09-27, 02:22:04,VALID,999.717,VALID,0,VALID,92.7609,VALID,0,VALID,23.3677,VALID,40,VALID,0.953516,
2010-09-27, 02:23:04,VALID,999.748,VALID,0,VALID,92.7533,VALID,0,VALID,23.35,VALID,43,VALID,1.13164,
2010-09-27, 02:24:04,VALID,999.729,VALID,0,VALID,92.7075,VALID,0,VALID,23.35,VALID,49,VALID,0.841406,
2010-09-27, 02:25:04,VALID,999.754,VALID,0,VALID,92.7304,VALID,0,VALID,23.35,VALID,50,VALID,1.01289,
2010-09-27, 02:26:04,VALID,999.741,VALID,0,VALID,92.7075,VALID,0,VALID,23.35,VALID,50,VALID,0.682031,
2010-09-27, 02:27:04,VALID,999.708,VALID,0,VALID,92.7457,VALID,0,VALID,23.35,VALID,50,VALID,0.678906,
2010-09-27, 02:28:04,VALID,999.705,VALID,0,VALID,92.7762,VALID,0,VALID,23.35,VALID,60,VALID,0.745703,
2010-09-27, 02:29:04,VALID,999.685,VALID,0,VALID,92.7838,VALID,0,VALID,23.3695,VALID,60,VALID,0.285156,
2010-09-27, 02:30:04,VALID,999.673,VALID,0,VALID,92.7991,VALID,0,VALID,23.3287,VALID,60,VALID,0.541797,
2010-09-27, 02:31:04,VALID,999.653,VALID,0,VALID,92.8143,VALID,0,VALID,23.3482,VALID,63,VALID,0.720703,
2010-09-27, 02:32:04,VALID,999.648,VALID,0,VALID,92.8601,VALID,0,VALID,23.35,VALID,66,VALID,0.596875,
2010-09-27, 02:33:04,VALID,999.641,VALID,0,VALID,92.8448,VALID,0,VALID,23.35,VALID,66,VALID,0.650391,
2010-09-27, 02:34:04,VALID,999.63,VALID,0,VALID,92.8754,VALID,0,VALID,23.3305,VALID,66,VALID,0.834375,
2010-09-27, 02:35:04,VALID,999.669,VALID,0,VALID,92.8601,VALID,0,VALID,23.3305,VALID,66,VALID,0.907031,
2010-09-27, 02:36:04,VALID,999.661,VALID,0,VALID,92.8601,VALID,0,VALID,23.3305,VALID,67,VALID,0.898438,
2010-09-27, 02:37:04,VALID,999.648,VALID,0,VALID,92.8525,VALID,0,VALID,23.3305,VALID,67,VALID,0.838672,
2010-09-27, 02:38:04,VALID,999.661,VALID,0,VALID,92.8601,VALID,0,VALID,23.3287,VALID,66,VALID,0.919141,
2010-09-27, 02:39:04,VALID,999.663,VALID,0,VALID,92.8525,VALID,0,VALID,23.3305,VALID,66,VALID,0.856641,
2010-09-27, 02:40:04,VALID,999.667,VALID,0,VALID,92.8143,VALID,0,VALID,23.3305,VALID,50,VALID,1.24805,
2010-09-27, 02:41:04,VALID,999.65,VALID,0,VALID,92.8143,VALID,0,VALID,23.3305,VALID,46,VALID,1.14219,
2010-09-27, 02:42:04,VALID,999.631,VALID,0,VALID,92.7838,VALID,0,VALID,23.2897,VALID,46,VALID,0.95,
2010-09-27, 02:43:04,VALID,999.638,VALID,0,VALID,92.7609,VALID,0,VALID,23.3092,VALID,43,VALID,0.785937,
2010-09-27, 02:44:04,VALID,999.633,VALID,0,VALID,92.7609,VALID,0,VALID,23.311,VALID,35,VALID,1.08789,
2010-09-27, 02:45:04,VALID,999.596,VALID,0,VALID,92.7304,VALID,0,VALID,23.311,VALID,31,VALID,1.17383,
2010-09-27, 02:46:04,VALID,999.58,VALID,0,VALID,92.7304,VALID,0,VALID,23.2915,VALID,28,VALID,0.990625,
2010-09-27, 02:47:04,VALID,999.592,VALID,0,VALID,92.738,VALID,0,VALID,23.2915,VALID,28,VALID,0.551953,
2010-09-27, 02:48:04,VALID,999.603,VALID,0,VALID,92.738,VALID,0,VALID,23.2915,VALID,47,VALID,0.692969,
2010-09-27, 02:49:04,VALID,999.605,VALID,0,VALID,92.738,VALID,0,VALID,23.2915,VALID,61,VALID,1.05938,
2010-09-27, 02:50:04,VALID,999.613,VALID,0,VALID,92.7457,VALID,0,VALID,23.2702,VALID,65,VALID,0.777734,
2010-09-27, 02:51:04,VALID,999.628,VALID,0,VALID,92.7914,VALID,0,VALID,23.311,VALID,78,VALID,1.04062,
2010-09-27, 02:52:04,VALID,999.685,VALID,0,VALID,92.7914,VALID,0,VALID,23.3092,VALID,73,VALID,1.3918,
2010-09-27, 02:53:04,VALID,999.643,VALID,0,VALID,92.7991,VALID,0,VALID,23.3305,VALID,81,VALID,1.28164,
2010-09-27, 02:54:04,VALID,999.657,VALID,0,VALID,92.7762,VALID,0,VALID,23.3305,VALID,77,VALID,1.19023,
2010-09-27, 02:55:04,VALID,999.659,VALID,0,VALID,92.7533,VALID,0,VALID,23.35,VALID,66,VALID,1.65273,
2010-09-27, 02:56:04,VALID,999.637,VALID,0,VALID,92.6923,VALID,0,VALID,23.3305,VALID,55,VALID,1.25781,
2010-09-27, 02:57:04,VALID,999.645,VALID,0,VALID,92.677,VALID,0,VALID,23.3305,VALID,54,VALID,0.907031,
2010-09-27, 02:58:04,VALID,999.662,VALID,0,VALID,92.6388,VALID,0,VALID,23.3305,VALID,48,VALID,0.819922,
2010-09-27, 02:59:04,VALID,999.629,VALID,0,VALID,92.6007,VALID,0,VALID,23.3287,VALID,53,VALID,0.413672,
2010-09-27, 03:00:04,VALID,999.591,VALID,0,VALID,92.6083,VALID,0,VALID,23.3092,VALID,53,VALID,0.402344,
2010-09-27, 03:01:04,VALID,999.615,VALID,0,VALID,92.6007,VALID,0,VALID,23.3092,VALID,31,VALID,0.573047,
2010-09-27, 03:02:04,VALID,999.566,VALID,0,VALID,92.5778,VALID,0,VALID,23.311,VALID,31,VALID,0.36875,
2010-09-27, 03:03:04,VALID,999.547,VALID,0,VALID,92.5778,VALID,0,VALID,23.311,VALID,31,VALID,0.305859,
2010-09-27, 03:04:04,VALID,999.54,VALID,0,VALID,92.5549,VALID,0,VALID,23.3305,VALID,31,VALID,0.305469,
2010-09-27, 03:05:04,VALID,999.489,VALID,0,VALID,92.5549,VALID,0,VALID,23.311,VALID,31,VALID,0,
2010-09-27, 03:06:04,VALID,999.478,VALID,0,VALID,92.532,VALID,0,VALID,23.2915,VALID,31,VALID,0,
2010-09-27, 03:07:04,VALID,999.48,VALID,0,VALID,92.5244,VALID,0,VALID,23.2915,VALID,31,VALID,0,
2010-09-27, 03:08:04,VALID,999.429,VALID,0,VALID,92.5015,VALID,0,VALID,23.2915,VALID,31,VALID,0.340234,
2010-09-27, 03:09:04,VALID,999.433,VALID,0,VALID,92.5015,VALID,0,VALID,23.311,VALID,31,VALID,0.452734,
2010-09-27, 03:10:04,VALID,999.4,VALID,0,VALID,92.4863,VALID,0,VALID,23.3305,VALID,31,VALID,0.309375,
2010-09-27, 03:11:04,VALID,999.39,VALID,0,VALID,92.4786,VALID,0,VALID,23.35,VALID,31,VALID,0.260156,
2010-09-27, 03:12:04,VALID,999.424,VALID,0,VALID,92.4939,VALID,0,VALID,23.3305,VALID,31,VALID,0,
2010-09-27, 03:13:04,VALID,999.434,VALID,0,VALID,92.4863,VALID,0,VALID,23.3305,VALID,31,VALID,0,
2010-09-27, 03:14:04,VALID,999.429,VALID,0,VALID,92.532,VALID,0,VALID,23.3305,VALID,31,VALID,0,
2010-09-27, 03:15:04,VALID,999.471,VALID,0,VALID,92.5702,VALID,0,VALID,23.3305,VALID,31,VALID,0,
2010-09-27, 03:16:04,VALID,999.492,VALID,0,VALID,92.5778,VALID,0,VALID,23.311,VALID,31,VALID,0,
2010-09-27, 03:17:04,VALID,999.501,VALID,0,VALID,92.6312,VALID,0,VALID,23.311,VALID,31,VALID,0.374609,
2010-09-27, 03:18:04,VALID,999.508,VALID,0,VALID,92.6007,VALID,0,VALID,23.2719,VALID,31,VALID,0.345703,
2010-09-27, 03:19:04,VALID,999.485,VALID,0,VALID,92.5854,VALID,0,VALID,23.2719,VALID,31,VALID,0.289844,
2010-09-27, 03:20:04,VALID,999.484,VALID,0,VALID,92.5702,VALID,0,VALID,23.2915,VALID,58,VALID,0.7375,
2010-09-27, 03:21:04,VALID,999.483,VALID,0,VALID,92.5626,VALID,0,VALID,23.311,VALID,58,VALID,0.588281,
2010-09-27, 03:22:04,VALID,999.511,VALID,0,VALID,92.5015,VALID,0,VALID,23.311,VALID,58,VALID,0.738281,
2010-09-27, 03:23:04,VALID,999.517,VALID,0,VALID,92.4786,VALID,0,VALID,23.3305,VALID,58,VALID,0.782812,
2010-09-27, 03:24:04,VALID,999.532,VALID,0,VALID,92.4252,VALID,0,VALID,23.35,VALID,58,VALID,0.68125,
2010-09-27, 03:25:04,VALID,999.526,VALID,0,VALID,92.4023,VALID,0,VALID,23.3695,VALID,58,VALID,0.524609,
2010-09-27, 03:26:04,VALID,999.52,VALID,0,VALID,92.4023,VALID,0,VALID,23.35,VALID,58,VALID,0.358594,
2010-09-27, 03:27:04,VALID,999.509,VALID,0,VALID,92.3718,VALID,0,VALID,23.35,VALID,58,VALID,0.192969,
2010-09-27, 03:28:04,VALID,999.495,VALID,0,VALID,92.3489,VALID,0,VALID,23.3305,VALID,58,VALID,0,
2010-09-27, 03:29:04,VALID,999.514,VALID,0,VALID,92.3031,VALID,0,VALID,23.3092,VALID,58,VALID,0,
2010-09-27, 03:30:04,VALID,999.545,VALID,0,VALID,92.265,VALID,0,VALID,23.2897,VALID,58,VALID,0,
2010-09-27, 03:31:04,VALID,999.554,VALID,0,VALID,92.2497,VALID,0,VALID,23.2719,VALID,105,VALID,0.657031,
2010-09-27, 03:32:04,VALID,999.62,VALID,0,VALID,92.204,VALID,0,VALID,23.2915,VALID,113,VALID,0.758984,
2010-09-27, 03:33:04,VALID,999.61,VALID,0,VALID,92.2116,VALID,0,VALID,23.2897,VALID,130,VALID,0.795313,
2010-09-27, 03:34:04,VALID,999.633,VALID,0,VALID,92.2574,VALID,0,VALID,23.311,VALID,130,VALID,0.574219,
2010-09-27, 03:35:04,VALID,999.633,VALID,0,VALID,92.2955,VALID,0,VALID,23.3305,VALID,130,VALID,0.438672,
2010-09-27, 03:36:04,VALID,999.62,VALID,0,VALID,92.3718,VALID,0,VALID,23.3305,VALID,130,VALID,0.290625,
2010-09-27, 03:37:04,VALID,999.616,VALID,0,VALID,92.3947,VALID,0,VALID,23.3305,VALID,130,VALID,0.307422,
2010-09-27, 03:38:04,VALID,999.643,VALID,0,VALID,92.4634,VALID,0,VALID,23.3305,VALID,130,VALID,0.272266,
2010-09-27, 03:39:04,VALID,999.659,VALID,0,VALID,92.471,VALID,0,VALID,23.3305,VALID,130,VALID,0.25,
2010-09-27, 03:40:04,VALID,999.674,VALID,0,VALID,92.5091,VALID,0,VALID,23.3305,VALID,130,VALID,0.382813,
2010-09-27, 03:41:04,VALID,999.708,VALID,0,VALID,92.5473,VALID,0,VALID,23.3305,VALID,130,VALID,0.656641,
2010-09-27, 03:42:04,VALID,999.703,VALID,0,VALID,92.5549,VALID,0,VALID,23.3305,VALID,130,VALID,0.471094,
2010-09-27, 03:43:04,VALID,999.713,VALID,0,VALID,92.5397,VALID,0,VALID,23.3305,VALID,130,VALID,0.601953,
2010-09-27, 03:44:04,VALID,999.759,VALID,0,VALID,92.5015,VALID,0,VALID,23.3305,VALID,130,VALID,0.719141,
2010-09-27, 03:45:04,VALID,999.769,VALID,0,VALID,92.4405,VALID,0,VALID,23.3695,VALID,130,VALID,0.976953,
2010-09-27, 03:46:04,VALID,999.793,VALID,0,VALID,92.3184,VALID,0,VALID,23.4085,VALID,130,VALID,0.921875,
2010-09-27, 03:47:04,VALID,999.793,VALID,0,VALID,92.204,VALID,0,VALID,23.4067,VALID,130,VALID,0.942187,